N4BBA Weather Reports


time (UTC)temp
C
wind
direction
speed
KPH
gust
KPH
rain 1hr
cm
rain 24hr
cm
rain mn
cm
humidity
%
barometer
mb
20260508064643 11 115 0.0 0.0 0.00 0.00 0.00 97 1013.2
20260508064141 11 115 0.0 0.0 0.00 0.00 0.00 97 1013.1
20260508063638 11 111 0.0 0.0 0.00 0.00 0.00 97 1013.1
20260508063136 11 115 0.0 0.0 0.00 0.00 0.00 97 1013.0
20260508062633 11 121 0.0 0.0 0.00 0.00 0.00 97 1013.3
20260508062129 11 115 0.0 0.0 0.00 0.00 0.00 97 1013.2
20260508061627 10 117 0.0 0.0 0.00 0.00 0.00 97 1013.3
20260508061124 10 127 0.0 0.0 0.00 0.00 0.00 97 1013.3
20260508060621 10 127 0.0 0.0 0.00 0.00 0.00 97 1013.1
20260508060118 10 120 0.0 0.0 0.00 0.00 0.00 97 1013.1
20260508055614 10 120 0.0 0.0 0.00 0.00 0.00 97 1013.0
20260508055111 10 121 0.0 0.0 0.00 0.00 0.00 97 1013.0
20260508054607 10 123 0.0 0.0 0.00 0.00 0.00 97 1013.3
20260508054105 10 123 0.0 0.0 0.00 0.00 0.00 97 1013.0
20260508053601 11 111 0.0 0.0 0.00 0.00 0.00 97 1013.0
20260508053059 11 106 0.0 0.0 0.00 0.00 0.00 97 1012.8
20260508052556 11 106 0.0 0.0 0.00 0.00 0.00 97 1012.9
20260508052054 11 112 0.0 0.0 0.00 0.00 0.00 97 1012.9
20260508051549 11 112 0.0 0.0 0.00 0.00 0.00 97 1013.0
20260508051045 11 112 0.0 0.0 0.00 0.00 0.00 97 1013.0
20260508050541 11 112 0.0 0.0 0.00 0.00 0.00 97 1013.0
20260508050039 11 112 0.0 0.0 0.00 0.00 0.00 97 1012.9
20260508045535 11 112 0.0 0.0 0.00 0.00 0.00 97 1012.9
20260508045033 11 106 0.0 0.0 0.00 0.00 0.00 97 1012.8
20260508044530 11 106 0.0 0.0 0.00 0.00 0.00 97 1012.9
20260508044026 11 106 0.0 0.0 0.00 0.00 0.00 97 1012.9
20260508043522 11 105 0.0 0.0 0.00 0.00 0.00 97 1013.0
20260508043020 12 107 0.0 0.0 0.00 0.00 0.00 97 1013.1
20260508042516 12 110 0.0 0.0 0.00 0.00 0.00 97 1013.0
20260508042014 12 107 0.0 0.0 0.00 0.00 0.00 97 1012.7
20260508041510 12 130 0.0 1.6 0.00 0.00 0.00 97 1013.0
20260508041007 12 112 0.0 1.6 0.00 0.00 0.00 97 1012.8
20260508040504 12 127 0.0 0.0 0.00 0.00 0.00 97 1013.0
20260508040001 12 135 0.0 1.6 0.00 3.51 3.51 97 1012.9
20260508035458 12 138 0.0 0.0 0.00 3.51 3.51 97 1012.8
20260508034955 12 118 0.0 0.0 0.00 3.51 3.51 96 1012.5
20260508034452 12 144 1.6 1.6 0.00 3.51 3.51 96 1012.6
20260508033949 11 112 0.0 0.0 0.00 3.51 3.51 96 1012.4
20260508033447 11 102 0.0 0.0 0.00 3.51 3.51 96 1012.2
20260508032944 12 108 0.0 0.0 0.00 3.51 3.51 96 1012.1
20260508032441 11 111 0.0 0.0 0.00 3.51 3.51 96 1012.2
20260508031938 11 108 0.0 0.0 0.00 3.51 3.51 96 1012.1
20260508031436 12 61 0.0 1.6 0.00 3.51 3.51 96 1011.9
20260508030931 12 81 1.6 1.6 0.00 3.51 3.51 96 1012.0
20260508030428 12 114 0.0 0.0 0.00 3.51 3.51 96 1011.7
20260508025926 12 115 0.0 0.0 0.00 3.51 3.51 96 1011.9
20260508025422 12 101 0.0 0.0 0.00 3.51 3.51 96 1011.8
20260508024919 12 111 0.0 0.0 0.00 3.51 3.51 96 1011.7
20260508024416 12 108 0.0 0.0 0.00 3.51 3.51 96 1011.9
20260508023912 12 103 0.0 1.6 0.00 3.51 3.51 96 1011.9
20260508023409 12 124 0.0 1.6 0.00 3.51 3.51 96 1011.8
20260508022906 12 105 0.0 1.6 0.00 3.51 3.51 96 1011.7
20260508022401 12 98 0.0 1.6 0.00 3.51 3.51 96 1011.6
20260508021859 12 107 0.0 0.0 0.00 3.51 3.51 96 1011.7
20260508021355 12 101 0.0 1.6 0.00 3.51 3.51 96 1011.7
20260508020851 12 99 0.0 0.0 0.00 3.51 3.51 96 1011.6
20260508020349 12 113 0.0 0.0 0.00 3.51 3.51 96 1011.5
20260508015846 12 113 0.0 0.0 0.00 3.51 3.51 96 1011.3
20260508015344 11 106 0.0 0.0 0.00 3.51 3.51 96 1011.5
20260508014840 12 99 0.0 1.6 0.00 3.51 3.51 96 1011.6
20260508014338 12 11 1.6 3.2 0.00 3.51 3.51 96 1011.5
20260508013837 12 82 1.6 1.6 0.00 3.51 3.51 95 1011.5
20260508013334 11 119 0.0 1.6 0.00 3.51 3.51 95 1011.5
20260508012832 12 135 0.0 1.6 0.00 3.51 3.51 95 1010.9
20260508012329 12 182 1.6 1.6 0.00 3.51 3.51 95 1010.9
20260508011827 12 104 0.0 0.0 0.00 3.51 3.51 95 1010.7
20260508011324 12 106 0.0 0.0 0.00 3.51 3.51 95 1010.6
20260508010821 12 113 0.0 1.6 0.00 3.51 3.51 95 1010.8
20260508010319 12 117 1.6 1.6 0.00 3.51 3.51 95 1011.0
20260508005815 12 114 0.0 1.6 0.00 3.51 3.51 94 1011.1
20260508005312 12 326 4.8 6.4 0.00 3.51 3.51 94 1010.6
20260508004808 12 113 0.0 0.0 0.18 3.51 3.51 94 1010.5
20260508004304 12 100 0.0 3.2 0.18 3.51 3.51 94 1010.9
20260508003801 12 90 1.6 6.4 0.00 3.48 3.48 94 1011.1
20260508003259 12 232 1.6 4.8 0.00 3.48 3.48 94 1010.9
20260508002755 12 98 1.6 3.2 0.00 3.48 3.48 94 1010.4
20260508002252 12 119 0.0 0.0 0.00 3.48 3.48 94 1009.9
20260508001748 12 159 1.6 9.7 0.00 3.48 3.48 94 1009.9
20260508001244 12 131 1.6 3.2 0.00 3.48 3.48 94 1010.1
20260508000740 12 93 0.0 1.6 0.00 3.48 3.48 95 1010.0
20260508000238 12 90 1.6 3.2 0.00 3.48 3.48 95 1009.9
20260507235734 12 71 1.6 3.2 0.00 3.48 3.48 95 1009.8
20260507235232 12 92 0.0 1.6 0.00 3.48 3.48 95 1009.6
20260507234728 12 113 1.6 1.6 0.00 3.48 3.48 95 1009.8
20260507234225 12 68 1.6 3.2 0.00 3.48 3.48 95 1009.7
20260507233721 12 66 1.6 1.6 0.00 3.48 3.48 95 1009.7
20260507233219 12 108 0.0 0.0 0.00 3.48 3.48 95 1009.7
20260507232716 12 90 0.0 4.8 0.00 3.48 3.48 95 1009.6
20260507232214 12 103 0.0 1.6 0.00 3.48 3.48 95 1009.7
20260507231710 12 109 1.6 1.6 0.00 3.48 3.48 95 1009.6
20260507231207 12 326 1.6 3.2 0.00 3.48 3.48 95 1009.6
20260507230704 12 122 1.6 4.8 0.00 3.48 3.48 95 1009.7
20260507230201 12 167 0.0 9.7 0.00 3.48 3.48 95 1009.5
20260507225700 12 256 3.2 11.3 0.00 3.48 3.48 95 1009.5
20260507225157 12 34 1.6 3.2 0.00 3.48 3.48 95 1009.3
20260507224653 12 14 3.2 9.7 0.00 3.48 3.48 95 1009.2
20260507224150 12 116 0.0 4.8 0.00 3.48 3.48 95 1009.0
20260507223645 12 86 1.6 1.6 0.00 3.48 3.48 95 1009.3
20260507223143 12 137 6.4 12.9 0.00 3.48 3.48 95 1009.4
20260507222639 12 334 4.8 6.4 0.00 3.48 3.48 95 1009.3
20260507222136 12 341 3.2 4.8 0.00 3.48 3.48 95 1008.9
20260507221632 12 42 3.2 6.4 0.00 3.48 3.48 95 1009.2
20260507221129 12 122 0.0 3.2 0.00 3.48 3.48 95 1009.3
20260507220626 12 340 6.4 9.7 0.00 3.48 3.48 95 1009.2
20260507220124 13 38 9.7 22.5 0.00 3.48 3.48 95 1009.2
20260507215619 13 74 3.2 9.7 0.00 3.48 3.48 95 1009.2
20260507215118 13 330 3.2 3.2 0.00 3.48 3.48 95 1008.9
20260507214614 13 127 1.6 6.4 0.00 3.48 3.48 95 1009.0
20260507214111 13 101 1.6 6.4 0.00 3.48 3.48 95 1009.1
20260507213607 13 66 4.8 12.9 0.00 3.48 3.48 95 1008.5
20260507213104 13 98 3.2 11.3 0.00 3.48 3.48 95 1008.4
20260507212600 13 138 0.0 9.7 0.00 3.48 3.48 95 1008.4
20260507212057 14 95 0.0 1.6 0.00 3.48 3.48 95 1008.5
20260507211554 14 254 4.8 4.8 0.00 3.48 3.48 95 1008.3
20260507211050 14 32 3.2 16.1 0.00 3.48 3.48 95 1008.2
20260507210547 15 275 3.2 6.4 0.00 3.48 3.48 95 1008.2
20260507210044 15 119 1.6 3.2 0.00 3.48 3.48 95 1007.9
20260507205540 15 96 3.2 11.3 0.00 3.48 3.48 95 1007.7
20260507205037 15 47 3.2 6.4 0.00 3.48 3.48 95 1007.8
20260507204533 15 8 3.2 6.4 0.00 3.48 3.48 95 1007.8
20260507204031 15 107 1.6 3.2 0.00 3.48 3.48 95 1007.9
20260507203529 15 72 3.2 11.3 0.00 3.48 3.48 95 1007.6
20260507203026 15 110 4.8 9.7 0.00 3.48 3.48 95 1007.8
20260507202521 15 11 3.2 4.8 0.00 3.48 3.48 96 1007.7
20260507202018 15 8 1.6 4.8 0.00 3.48 3.48 95 1007.7
20260507201514 15 261 1.6 4.8 0.00 3.48 3.48 95 1007.7
20260507201010 16 357 4.8 12.9 0.00 3.48 3.48 96 1007.5
20260507200505 16 90 1.6 9.7 0.00 3.48 3.48 95 1007.8
20260507200001 15 134 0.0 12.9 0.00 3.48 3.48 95 1007.8
20260507195459 15 300 1.6 14.5 0.00 3.48 3.48 95 1007.7
20260507194956 16 297 4.8 4.8 0.00 3.48 3.48 95 1007.6
20260507194453 15 344 3.2 12.9 0.00 3.48 3.48 95 1007.6
20260507193948 16 354 6.4 9.7 0.00 3.48 3.48 95 1007.4
20260507193446 16 342 3.2 12.9 0.00 3.48 3.48 94 1007.5
20260507192943 16 75 3.2 17.7 0.00 3.48 3.48 94 1007.6
20260507192438 17 83 4.8 14.5 0.00 3.48 3.48 94 1007.3
20260507191936 17 344 3.2 9.7 0.00 3.48 3.48 94 1007.4
20260507191432 18 77 1.6 6.4 0.00 3.48 3.48 93 1007.1
20260507190928 20 327 8.0 9.7 0.00 3.48 3.48 94 1006.9
20260507190426 22 327 6.4 9.7 0.00 3.48 3.48 94 1006.4
20260507185925 23 224 8.0 11.3 0.00 3.48 3.48 94 1006.4
20260507185422 23 170 4.8 9.7 0.00 3.48 3.48 95 1006.5
20260507184919 22 247 6.4 9.7 0.00 3.48 3.48 95 1006.8
20260507184417 21 203 3.2 9.7 0.00 3.48 3.48 96 1007.3
20260507183914 21 239 4.8 11.3 0.00 3.48 3.48 96 1007.1
20260507183411 21 235 4.8 9.7 0.00 3.48 3.48 96 1007.0
20260507182908 21 228 6.4 6.4 0.00 3.48 3.48 96 1007.1
20260507182403 21 280 4.8 6.4 0.00 3.48 3.48 97 1006.9
20260507181900 21 185 1.6 3.2 0.00 3.48 3.48 97 1007.2
20260507181356 21 268 6.4 11.3 0.00 3.48 3.48 97 1007.3
20260507180853 21 239 6.4 9.7 0.00 3.48 3.48 97 1007.4
20260507180350 20 286 4.8 9.7 0.00 3.48 3.48 97 1007.3
20260507175846 21 283 3.2 9.7 0.00 3.48 3.48 97 1007.7
20260507175343 21 210 3.2 4.8 0.00 3.48 3.48 97 1007.2
20260507174840 21 212 3.2 4.8 0.00 3.48 3.48 97 1007.0
20260507174338 21 143 0.0 6.4 0.00 3.48 3.48 97 1006.9
20260507173835 21 243 3.2 9.7 0.18 3.48 3.48 97 1007.0
20260507173332 21 233 1.6 4.8 0.18 3.48 3.48 97 1006.8
20260507172828 21 168 4.8 11.3 0.00 3.45 3.45 97 1007.0
20260507172325 21 127 3.2 6.4 0.00 3.45 3.45 97 1007.3
20260507171821 21 152 4.8 4.8 0.00 3.45 3.45 98 1007.5
20260507171318 20 157 1.6 4.8 0.00 3.45 3.45 98 1007.4
20260507170815 20 181 3.2 4.8 0.00 3.45 3.45 98 1007.5
20260507170311 20 151 1.6 3.2 0.00 3.45 3.45 98 1007.5
20260507165807 20 126 1.6 3.2 0.00 3.45 3.45 98 1007.8
20260507165306 20 144 1.6 3.2 0.00 3.45 3.45 98 1007.8
20260507164759 20 138 1.6 1.6 0.13 3.45 3.45 98 1008.2
20260507164257 20 192 4.8 6.4 0.13 3.45 3.45 98 1008.5
20260507163754 20 195 4.8 4.8 0.00 3.43 3.43 98 1008.4
20260507163252 20 198 3.2 11.3 0.00 3.43 3.43 98 1008.2
20260507162747 20 172 1.6 4.8 0.00 3.43 3.43 98 1008.6
20260507162243 20 226 4.8 4.8 0.00 3.43 3.43 98 1008.4
20260507161741 20 220 4.8 6.4 0.00 3.43 3.43 98 1008.6
20260507161237 20 127 0.0 1.6 0.00 3.43 3.43 98 1008.6
20260507160733 20 146 0.0 3.2 0.00 3.43 3.43 98 1008.6
20260507160229 20 160 1.6 4.8 0.18 3.43 3.43 98 1008.7
20260507155726 20 156 1.6 3.2 0.00 3.40 3.40 98 1008.6
20260507155222 20 185 3.2 3.2 0.00 3.40 3.40 98 1008.3
20260507154719 20 224 3.2 4.8 0.13 3.40 3.40 98 1008.5
20260507154216 20 147 4.8 4.8 0.13 3.40 3.40 98 1008.1
20260507153712 20 148 1.6 3.2 0.00 3.38 3.38 98 1008.4
20260507153209 20 143 1.6 3.2 0.18 3.38 3.38 98 1008.6
20260507152706 20 216 1.6 3.2 0.30 3.38 3.38 98 1008.6
20260507152201 20 173 1.6 4.8 0.30 3.35 3.35 98 1008.9
20260507151657 19 179 3.2 4.8 0.30 3.33 3.33 98 1008.9
20260507151154 19 246 3.2 4.8 0.30 3.30 3.30 98 1008.9
20260507150652 20 192 3.2 6.4 0.30 3.28 3.28 98 1009.3
20260507150148 19 239 3.2 6.4 0.61 3.25 3.25 98 1009.3
20260507145643 19 88 4.8 4.8 0.97 3.23 3.23 98 1009.3
20260507145141 20 243 3.2 9.7 0.89 3.15 3.15 97 1009.2
20260507144637 20 186 3.2 6.4 0.89 3.07 3.07 97 1009.3
20260507144136 20 226 6.4 12.9 0.97 3.00 3.00 97 1009.5
20260507143632 20 170 1.6 11.3 0.66 2.90 2.90 97 1009.2
20260507143129 20 243 3.2 9.7 0.61 2.84 2.84 97 1009.3
20260507142624 20 245 3.2 4.8 0.61 2.77 2.77 97 1009.4
20260507142122 20 282 4.8 6.4 0.43 2.74 2.74 97 1009.2
20260507141618 20 213 3.2 6.4 0.18 2.67 2.67 97 1009.3
20260507141115 20 197 3.2 4.8 0.18 2.67 2.67 97 1009.4
20260507140611 20 225 3.2 6.4 0.00 2.64 2.64 97 1009.1
20260507140109 20 235 3.2 6.4 0.13 2.64 2.64 97 1009.0
20260507135606 20 177 3.2 11.3 0.30 2.64 2.64 97 1009.1
20260507135103 20 203 6.4 11.3 0.30 2.62 2.62 97 1009.1
20260507134559 20 228 9.7 11.3 0.30 2.59 2.59 97 1009.2
20260507134055 20 178 6.4 11.3 0.18 2.57 2.57 97 1009.5
20260507133551 20 192 4.8 4.8 0.00 2.54 2.54 97 1009.3
20260507133049 20 137 4.8 6.4 0.00 2.54 2.54 97 1008.9
20260507132546 20 149 3.2 4.8 0.00 2.54 2.54 97 1009.0
20260507132042 20 226 3.2 6.4 0.00 2.54 2.54 97 1008.8
20260507131539 20 156 0.0 3.2 0.00 2.54 2.54 98 1008.7
20260507131037 20 173 3.2 4.8 0.00 2.54 2.54 98 1008.8
20260507130533 20 211 6.4 11.3 0.00 2.54 2.54 98 1008.8
20260507130032 20 215 3.2 6.4 0.00 2.54 2.54 98 1009.0
20260507125530 20 209 4.8 9.7 0.00 2.54 2.54 98 1008.9
20260507125027 20 185 6.4 9.7 0.00 2.54 2.54 98 1008.8
20260507124523 20 182 4.8 6.4 0.00 2.54 2.54 98 1008.8
20260507124021 20 154 3.2 11.3 0.00 2.54 2.54 98 1009.0
20260507123519 20 173 4.8 6.4 0.00 2.54 2.54 98 1009.3
20260507123015 20 205 3.2 12.9 0.18 2.54 2.54 98 1009.4
20260507122510 20 140 6.4 17.7 0.18 2.54 2.54 98 1009.5
20260507122007 20 172 6.4 6.4 0.00 2.51 2.51 98 1009.5
20260507121502 20 130 1.6 3.2 0.00 2.51 2.51 98 1009.5
20260507120958 20 194 3.2 4.8 0.00 2.51 2.51 98 1009.8
20260507120455 19 158 4.8 9.7 0.00 2.51 2.51 98 1009.6
20260507115952 19 185 3.2 4.8 0.00 2.51 2.51 98 1009.6
20260507115448 19 119 0.0 4.8 0.00 2.51 2.51 98 1009.6
20260507114944 19 167 6.4 6.4 0.00 2.51 2.51 98 1009.9
20260507114440 19 132 1.6 6.4 0.00 2.51 2.51 98 1010.1
20260507113938 19 153 1.6 1.6 0.00 2.51 2.51 98 1010.0
20260507113434 19 129 3.2 3.2 0.00 2.51 2.51 98 1009.8
20260507112932 19 106 3.2 3.2 0.00 2.51 2.51 98 1009.8
20260507112429 19 139 1.6 3.2 0.00 2.51 2.51 98 1010.0
20260507111926 19 218 3.2 3.2 0.00 2.51 2.51 98 1010.1
20260507111423 19 136 1.6 1.6 0.00 2.51 2.51 98 1010.1
20260507110920 18 132 0.0 0.0 0.00 2.51 2.51 98 1010.0
20260507110416 18 126 1.6 1.6 0.13 2.51 2.51 98 1009.9
20260507105913 18 127 0.0 1.6 0.30 2.51 2.51 98 1009.9
20260507105409 18 219 3.2 4.8 0.30 2.49 2.49 98 1009.9
20260507104906 18 131 1.6 3.2 0.30 2.46 2.46 98 1009.8
20260507104403 18 145 0.0 0.0 0.18 2.44 2.44 98 1009.8
20260507103859 18 126 0.0 0.0 0.13 2.41 2.41 98 1009.8
20260507103356 18 103 0.0 1.6 0.30 2.41 2.41 98 1009.6
20260507102852 18 112 0.0 1.6 0.18 2.39 2.39 98 1009.9
20260507102348 18 97 0.0 1.6 0.13 2.36 2.36 98 1009.8
20260507101845 18 91 0.0 1.6 0.30 2.36 2.36 98 1009.7
20260507101345 18 131 0.0 1.6 0.30 2.34 2.34 98 1009.6
20260507100842 18 128 1.6 3.2 0.13 2.31 2.31 98 1009.5
20260507100340 18 117 3.2 4.8 0.18 2.29 2.29 98 1009.6
20260507095838 18 193 3.2 3.2 0.30 2.29 2.29 98 1009.6
20260507095334 18 182 1.6 3.2 0.30 2.26 2.26 98 1009.8
20260507094832 18 149 1.6 3.2 0.36 2.24 2.24 98 1009.4
20260507094328 18 210 3.2 3.2 0.18 2.21 2.21 98 1009.5
20260507093825 18 149 3.2 4.8 0.13 2.18 2.18 98 1009.5
20260507093324 18 170 3.2 6.4 0.13 2.18 2.18 98 1009.4
20260507092821 18 171 3.2 9.7 0.18 2.16 2.16 98 1009.6
20260507092318 18 186 4.8 9.7 0.13 2.13 2.13 98 1009.5
20260507091814 18 143 1.6 4.8 0.13 2.13 2.13 98 1009.4
20260507091310 18 215 6.4 6.4 0.00 2.11 2.11 98 1009.7
20260507090805 18 173 3.2 6.4 0.18 2.11 2.11 98 1009.3
20260507090302 18 165 6.4 9.7 0.79 2.11 2.11 98 1009.8
20260507085759 18 184 3.2 9.7 1.27 2.06 2.06 98 1010.1
20260507085256 18 251 3.2 6.4 1.27 1.96 1.96 98 1010.0
20260507084753 18 199 6.4 6.4 1.50 1.88 1.88 98 1010.1
20260507084249 18 135 3.2 4.8 1.19 1.75 1.75 98 1010.3
20260507083747 18 178 3.2 6.4 0.97 1.63 1.63 97 1010.6
20260507083244 18 198 3.2 6.4 0.43 1.52 1.52 97 1010.6
20260507082739 18 202 4.8 4.8 0.30 1.47 1.47 97 1010.4
20260507082235 18 190 3.2 4.8 0.18 1.45 1.45 97 1010.3
20260507081732 18 177 3.2 3.2 0.00 1.42 1.42 97 1010.1
20260507081228 18 144 3.2 3.2 0.13 1.42 1.42 97 1010.0
20260507080725 18 131 0.0 1.6 0.13 1.42 1.42 97 1010.3
20260507080221 18 121 0.0 0.0 0.18 1.40 1.40 97 1010.2
20260507075717 18 111 0.0 0.0 0.18 1.40 1.40 97 1010.3
20260507075214 18 114 0.0 0.0 0.00 1.37 1.37 97 1010.1
20260507074710 18 142 1.6 3.2 0.00 1.37 1.37 97 1010.3
20260507074209 18 129 0.0 0.0 0.13 1.37 1.37 97 1010.4
20260507073704 18 120 0.0 0.0 0.00 1.35 1.35 97 1010.4
20260507073200 18 124 0.0 0.0 0.00 1.35 1.35 97 1010.5
20260507072659 18 121 0.0 0.0 0.00 1.35 1.35 96 1010.3
20260507072156 18 99 0.0 0.0 0.00 1.35 1.35 96 1010.6
20260507071653 18 117 0.0 0.0 0.00 1.35 1.35 96 1010.7
20260507071149 18 120 0.0 0.0 0.00 1.35 1.35 96 1010.8
20260507070647 18 120 0.0 0.0 0.00 1.35 1.35 96 1010.7
20260507070143 18 120 0.0 0.0 0.00 1.35 1.35 96 1010.8
20260507065639 18 121 0.0 0.0 0.00 1.35 1.35 96 1011.1
20260507065137 18 114 0.0 0.0 0.00 1.35 1.35 96 1010.9